Bridgeport, WV

4:42 PM EDT on September 28, 2016 (GMT -0400)
Benedum

Weather History for KCKB - August, 2014

Change the Weather History Date:

Friday, August 22, 2014

  Actual Average Record
Temperature  
Mean Temperature 74 °F -  
Max Temperature 81 °F 82 °F 97 °F (1936)
Min Temperature 69 °F 58 °F 48 °F (1956)
Cooling Degree Days 10    
Growing Degree Days 24 (Base 50)    
Moisture  
Dew Point 68 °F    
Average Humidity 87    
Maximum Humidity 96    
Minimum Humidity 69    
Precipitation  
Precipitation 0.71 in - - ()
Sea Level Pressure  
Sea Level Pressure 30.00 in    
Wind  
Wind Speed 4 mph (SSW)    
Max Wind Speed 10 mph    
Max Gust Speed -    
Visibility 8 miles    
Events Fog , Rain    
Averages and records for this station are not official NWS values.
T = Trace of Precipitation, MM = Missing Value Source: NWS Daily Summary

Daily Weather History Graph

Daily Weather History Graph

Search for Another Location

Airport or City:

Trip Planner

Search our weather history database for the weather conditions in past years. The results will help you decide how hot, cold, wet, or windy it might be!

Date:

Astronomy

Aug. 22, 2014 Rise Set
Actual Time 6:40 AM EDT 8:06 PM EDT
Civil Twilight 6:12 AM EDT 8:34 PM EDT
Nautical Twilight 5:38 AM EDT 9:08 PM EDT
Astronomical Twilight 5:02 AM EDT 9:43 PM EDT
Moon 4:01 AM EDT (8/22) 6:13 PM EDT (8/22)
Length of Visible Light 14h 22m
Length of Day
13h 26m
Waning Crescent, 8% of the Moon is Illuminated
Aug 22
Waning Crescent
Aug 25
New
Sep 2
First Quarter
Sep 8
Full
Sep 15
Last Quarter

Hourly Weather History & Observations

Time (EDT) Temp. Heat Index Dew Point Humidity Pressure Visibility Wind Dir Wind Speed Gust Speed Precip Events Conditions
12:53 AM 69.1 °F - 66.9 °F 93% 30.04 in 9.0 mi SSW 4.6 mph - N/A   Mostly Cloudy
1:53 AM 69.1 °F - 66.9 °F 93% 30.03 in 8.0 mi SE 3.5 mph - N/A   Mostly Cloudy
2:53 AM 69.1 °F - 66.9 °F 93% 30.00 in 8.0 mi Calm Calm - N/A   Overcast
3:16 AM 69.1 °F - 66.9 °F 93% 30.04 in 8.0 mi SE 3.5 mph - N/A   Overcast
3:37 AM 69.1 °F - 66.9 °F 93% 30.03 in 10.0 mi SE 4.6 mph - N/A   Overcast
3:53 AM 69.1 °F - 66.9 °F 93% 29.99 in 10.0 mi South 4.6 mph - N/A   Overcast
5:05 AM 69.1 °F - 66.9 °F 93% 30.03 in 1.8 mi NW 10.4 mph - 0.11 in Rain Heavy Rain
5:12 AM 69.1 °F - 66.9 °F 93% 30.03 in 0.5 mi Calm Calm - 0.45 in Fog , Rain Heavy Rain
5:22 AM 69.1 °F - 68.0 °F 96% 30.02 in 1.0 mi Calm Calm - 0.65 in Rain Heavy Rain
5:27 AM 69.1 °F - 68.0 °F 96% 30.02 in 2.0 mi SSE 3.5 mph - 0.67 in Rain Heavy Rain
5:34 AM 69.1 °F - 66.9 °F 93% 30.01 in 4.0 mi East 3.5 mph - 0.69 in Rain Rain
5:43 AM 69.1 °F - 66.9 °F 93% 30.02 in 4.0 mi SSE 3.5 mph - 0.71 in Rain Rain
5:53 AM 69.1 °F - 66.9 °F 93% 29.98 in 10.0 mi South 4.6 mph - 0.71 in Rain Light Rain
6:11 AM 69.1 °F - 66.9 °F 93% 30.03 in 7.0 mi South 5.8 mph - 0.00 in   Overcast
6:53 AM 69.1 °F - 66.9 °F 93% 29.98 in 8.0 mi South 4.6 mph - 0.00 in   Overcast
7:37 AM 69.1 °F - 66.9 °F 93% 30.02 in 7.0 mi SSW 3.5 mph - 0.00 in   Overcast
8:53 AM 70.0 °F - 68.0 °F 93% 30.01 in 10.0 mi WSW 5.8 mph - 0.00 in   Overcast
9:53 AM 71.1 °F - 68.0 °F 90% 30.00 in 10.0 mi SSW 4.6 mph - N/A   Overcast
10:53 AM 73.0 °F - 69.1 °F 87% 30.01 in 10.0 mi SW 5.8 mph - N/A   Overcast
11:53 AM 73.0 °F - 69.1 °F 87% 30.01 in 10.0 mi SW 5.8 mph - N/A   Overcast
12:53 PM 75.0 °F - 68.0 °F 79% 30.00 in 10.0 mi SW 6.9 mph - N/A   Overcast
1:53 PM 77.0 °F - 70.0 °F 79% 29.99 in 10.0 mi SSW 8.1 mph - N/A   Mostly Cloudy
2:05 PM 75.9 °F - 68.0 °F 76% 30.03 in 10.0 mi SW 8.1 mph - N/A   Mostly Cloudy
2:53 PM 78.1 °F - 69.1 °F 74% 29.97 in 10.0 mi West 4.6 mph - N/A   Mostly Cloudy
3:21 PM 80.1 °F 82.9 °F 69.1 °F 69% 30.00 in 10.0 mi SW 6.9 mph - N/A   Mostly Cloudy
3:53 PM 79.0 °F - 70.0 °F 74% 29.96 in 10.0 mi SSW 9.2 mph - N/A   Mostly Cloudy
4:00 PM 78.1 °F - 69.1 °F 74% 30.00 in 10.0 mi SSW 9.2 mph - N/A   Overcast
5:53 PM 79.0 °F - 70.0 °F 74% 29.93 in 10.0 mi SW 6.9 mph - N/A   Mostly Cloudy
6:53 PM 79.0 °F - 70.0 °F 74% 29.93 in 10.0 mi SSW 8.1 mph - N/A   Scattered Clouds
7:53 PM 75.0 °F - 69.1 °F 82% 29.95 in 10.0 mi SW 4.6 mph - N/A   Partly Cloudy
8:53 PM 75.0 °F - 70.0 °F 84% 29.96 in 10.0 mi South 3.5 mph - N/A   Overcast
9:53 PM 73.9 °F - 70.0 °F 87% 29.96 in 10.0 mi South 4.6 mph - N/A   Scattered Clouds
10:53 PM 73.0 °F - 70.0 °F 90% 29.97 in 10.0 mi South 3.5 mph - N/A   Overcast
11:23 PM 73.0 °F - 70.0 °F 90% 30.02 in 10.0 mi Calm Calm - N/A   Overcast
11:44 PM 72.0 °F - 70.0 °F 93% 30.01 in 9.0 mi Calm Calm - N/A   Mostly Cloudy
11:53 PM 72.0 °F - 69.1 °F 91% 29.97 in 10.0 mi Calm Calm - N/A   Mostly Cloudy